Temperature
28 28 28 29 30 30 30 30 30 31 32 31 30 30 29 29 29 29 28 27 26 25 24 23 22 22 21 20 19 19 19 19 19 19 18 18 18 18 18 18 18 18 18 18
29 28 30 31 31 31 30 30 30 31 32 31 30 30 30 30 29 29 28 27 26 25 24 23 22 22 21 20 19 19 19 19 19 18 18 18 18 18 18 18 18 18 18 18
29 30 31 31 30 30 30 30 30 30 31 31 30 29 30 30 29 29 28 27 26 25 24 23 22 21 20 20 19 19 19 19 19 18 18 18 18 18 18 18 17 17 17 17
30 31 31 31 30 30 30 31 30 30 29 29 30 28 29 29 29 29 28 27 26 25 24 23 22 22 21 20 19 19 19 19 18 18 18 18 18 18 18 18 17 17 17 17
30 31 31 30 30 31 30 31 30 29 29 29 29 28 28 28 27 27 28 27 26 25 24 23 23 22 21 20 19 19 19 19 18 18 18 18 18 18 18 18 17 17 17 17
30 31 31 31 31 31 31 30 30 29 29 27 28 28 28 28 27 27 27 27 26 25 24 24 23 22 21 20 19 19 19 18 18 18 18 18 18 18 17 17 17 17 17 17
29 30 31 31 30 31 30 29 27 27 27 27 29 29 28 28 28 27 27 27 26 26 25 24 23 22 21 21 20 19 18 18 18 18 18 18 18 17 17 17 17 17 17 17
27 28 30 31 30 30 30 29 27 26 26 27 29 29 29 28 28 28 27 26 26 25 25 24 23 22 22 21 20 19 18 18 18 18 17 17 17 17 17 17 17 17 17 17
28 28 31 31 31 31 29 29 29 28 27 27 27 28 28 29 28 28 27 27 26 25 25 24 23 22 22 21 20 19 19 18 18 17 17 17 17 17 17 17 17 17 17 17
28 28 30 31 31 31 31 30 29 28 26 26 26 27 27 27 28 28 27 27 25 25 24 24 23 22 22 21 20 19 19 18 18 17 17 17 17 17 17 16 16 17 16 16
28 27 28 29 29 29 29 29 29 29 28 26 26 27 29 28 28 28 27 26 25 24 24 23 22 22 21 20 20 19 18 18 17 17 17 17 17 17 17 17 17 17 16 16
27 26 26 28 30 31 30 29 29 27 27 27 27 27 29 28 28 27 27 26 25 24 24 23 22 22 21 20 19 19 18 17 17 17 17 17 17 16 16 16 16 16 16 16
26 25 24 25 27 29 29 29 29 29 27 27 26 27 28 28 27 27 26 25 24 23 23 22 22 21 20 20 19 18 18 17 17 17 17 16 16 16 16 16 16 16 16 16
25 25 24 24 25 27 27 28 29 28 27 27 27 27 27 27 26 26 25 25 24 23 23 22 21 21 20 20 19 18 18 17 17 17 16 16 16 16 16 16 15 15 15 15
25 25 25 25 26 27 27 28 28 28 27 27 27 26 26 26 26 26 25 24 23 23 22 22 21 20 20 19 19 18 18 17 17 16 16 16 16 15 15 15 15 15 15 15
25 24 24 25 26 27 27 28 28 28 28 27 27 26 27 26 26 25 24 24 23 23 22 22 21 20 19 19 18 18 17 17 17 16 16 16 16 15 15 15 15 15 15 14
24 23 23 24 26 26 26 27 27 28 28 27 26 26 26 25 25 24 24 23 22 22 22 21 20 20 19 18 18 17 17 17 16 16 15 15 15 15 15 15 14 14 14 14
23 23 23 23 24 23 25 27 28 27 27 27 26 26 26 25 24 23 23 22 22 22 21 21 20 19 19 18 18 17 17 17 16 16 15 15 15 15 14 14 14 14 14 14
24 22 22 22 22 23 25 26 26 26 25 26 26 25 25 25 24 23 22 22 21 21 21 20 19 19 18 18 17 17 17 16 16 16 15 15 15 15 14 14 14 14 14 14
24 23 22 22 22 22 23 25 26 26 24 25 25 24 24 24 23 22 22 21 21 20 20 19 19 18 18 17 17 17 16 16 16 16 15 15 15 14 14 14 14 14 14 13
22 22 21 21 21 22 23 24 25 23 22 23 23 23 23 22 22 21 21 20 20 20 19 18 18 18 17 17 17 16 16 16 16 15 15 15 14 14 14 14 14 13 13 13
21 21 21 21 21 21 22 23 22 21 21 21 21 21 21 20 20 20 20 19 19 18 18 18 17 17 17 16 16 16 16 15 15 15 14 14 14 14 14 14 13 13 13 13
21 20 20 20 19 19 20 20 20 20 20 20 20 20 20 20 20 19 19 18 18 18 17 17 17 16 16 16 16 15 15 15 15 14 14 14 14 14 13 13 13 13 13 13
20 21 20 19 19 19 19 19 19 19 19 19 19 19 19 19 19 19 18 18 17 17 17 16 16 16 15 15 15 15 15 14 14 14 14 14 13 13 13 13 13 13 13 13
19 20 19 19 19 19 19 18 18 18 18 18 19 18 18 18 18 18 17 17 16 16 16 16 15 15 15 15 15 14 14 14 14 14 13 13 13 13 13 13 13 13 13 13
19 19 18 18 18 18 18 18 18 18 18 18 18 18 18 17 17 17 16 16 16 15 15 15 15 15 14 14 14 14 14 14 13 13 13 13 13 13 13 12 12 12 12 12
Wind_Speed
12 12 14 14 13 14 14 11 9 8 7 8 8 7 8 9 8 8 9 10 10 9 9 8 9 10 9 8 7 6 6 4 2 3 2 2 2 2 2 2 3 3 2 2
13 17 17 14 13 14 14 12 10 8 8 8 9 9 9 10 10 9 10 10 10 10 10 10 9 9 9 8 7 7 6 5 3 3 2 2 2 2 2 2 3 3 2 1
17 13 12 12 12 14 13 11 10 9 7 8 9 9 9 11 10 10 10 10 11 11 11 11 10 9 9 9 8 6 6 5 3 3 2 2 1 1 2 2 2 2 3 2
15 15 12 12 13 12 12 10 10 11 9 8 9 9 10 10 11 12 11 10 10 10 10 11 11 11 10 10 9 7 7 6 4 3 2 3 2 2 2 1 2 2 3 2
14 14 14 14 13 12 11 8 9 11 11 11 10 9 8 9 10 10 11 11 11 11 11 11 11 10 10 9 9 8 7 6 4 3 2 2 2 1 1 1 2 1 2 2
15 14 14 14 12 11 10 9 9 10 10 13 13 11 7 8 10 10 11 11 12 12 11 11 11 11 10 9 9 9 8 6 5 4 3 2 2 2 2 1 2 1 1 1
15 16 15 13 12 12 11 9 7 9 10 12 12 10 5 6 9 11 12 12 11 11 10 11 11 10 9 10 9 9 9 7 6 4 3 2 2 1 1 1 1 1 1 1
12 13 14 13 13 12 12 12 9 9 9 8 9 8 6 9 8 12 12 12 11 11 10 10 10 9 9 9 9 9 9 7 6 5 4 3 2 1 1 1 0 1 1 1
10 12 11 11 12 13 12 12 12 12 11 10 8 5 6 10 9 10 12 11 11 11 10 10 10 8 9 9 9 9 9 7 6 5 4 3 3 2 1 1 0 0 1 1
10 10 11 10 10 13 13 11 8 11 9 10 9 8 6 10 10 10 11 11 11 9 9 9 8 7 8 9 9 8 9 8 6 5 4 4 2 2 2 2 1 0 1 2
9 9 11 10 13 12 11 13 10 10 9 9 8 5 4 7 8 9 10 10 11 11 9 9 9 8 8 8 9 9 8 8 7 6 4 4 3 2 2 2 2 1 1 1
7 7 10 13 12 12 13 13 12 10 9 10 9 4 3 5 6 7 8 9 9 9 8 8 8 9 8 8 8 7 7 7 7 6 5 4 4 3 2 2 2 2 1 1
4 5 8 10 10 11 12 12 12 10 8 10 10 4 4 6 5 6 7 8 8 7 9 9 9 8 7 7 7 7 6 6 6 6 6 5 4 3 2 2 2 2 2 1
5 7 9 12 10 10 11 13 13 11 11 11 9 5 3 4 5 6 7 7 8 7 7 8 8 7 7 7 6 6 6 6 5 6 6 5 4 3 3 2 2 2 2 1
5 9 11 14 15 14 13 13 14 12 12 11 8 6 3 3 4 4 6 7 8 7 7 7 8 7 7 7 6 6 6 6 6 6 6 5 4 3 3 2 2 2 2 2
4 8 11 14 15 15 14 13 12 12 12 11 10 5 2 2 2 4 5 5 6 7 7 7 7 8 8 7 7 7 7 6 6 6 5 5 5 4 3 3 3 3 2 1
6 7 10 13 13 14 13 11 11 10 9 9 9 5 2 2 3 3 4 5 5 4 6 7 7 7 7 7 7 6 6 6 6 6 5 5 6 5 5 4 3 3 2 2
8 8 7 11 12 14 9 8 8 7 6 4 4 3 4 4 4 3 4 4 5 5 6 7 6 6 6 6 6 6 7 7 6 6 6 5 6 5 5 4 4 3 2 2
8 7 8 9 12 12 9 5 4 6 4 3 2 2 2 1 2 3 4 4 4 4 5 6 6 6 5 6 6 5 6 6 6 7 6 6 6 6 5 5 4 3 3 2
10 8 9 10 11 12 7 5 7 5 5 3 2 1 1 1 4 2 3 4 3 3 4 5 5 5 5 5 5 6 6 7 7 7 6 5 5 6 5 5 4 4 3 3
10 10 12 13 13 8 5 6 6 5 2 4 4 3 2 2 2 1 3 3 3 4 4 4 4 4 4 5 5 6 6 6 6 6 5 5 5 5 5 5 4 4 4 3
9 9 10 11 12 7 7 3 1 3 5 5 5 4 3 1 1 2 2 3 3 4 4 4 3 4 4 4 5 6 5 5 5 5 6 6 5 5 5 5 5 4 5 5
5 4 3 2 3 3 6 4 3 4 5 4 4 4 2 1 1 3 2 3 3 3 3 3 4 4 3 4 4 5 4 4 4 4 5 4 4 4 4 4 5 5 5 5
4 3 3 2 3 3 2 4 4 5 5 5 5 4 3 2 1 1 2 2 2 2 3 3 3 4 4 3 3 3 4 4 4 4 4 4 4 4 4 4 4 4 4 3
7 5 5 5 4 4 2 2 4 4 5 6 5 3 2 1 1 1 1 1 2 2 2 2 3 3 3 4 3 3 4 4 4 4 4 4 4 3 2 2 1 2 2 2
6 6 5 5 4 4 4 4 4 3 4 5 5 4 3 2 2 1 1 1 2 2 3 3 2 3 3 3 4 3 3 4 5 4 4 4 4 3 3 3 1 2 1 1
Wind_Direction
221 229 234 235 235 249 257 263 253 241 215 219 223 214 186 188 193 188 176 167 162 152 147 143 144 145 143 139 140 140 136 135 142 137 155 156 156 146 123 129 128 132 134 114
229 229 233 237 244 249 255 258 256 248 227 224 229 223 201 189 192 190 178 170 160 151 149 153 147 142 139 139 143 140 138 143 161 138 150 168 158 168 146 125 120 130 135 142
233 238 230 235 237 245 248 251 260 258 236 225 235 236 221 186 191 186 179 170 164 160 160 159 152 150 149 152 150 146 139 139 145 138 146 134 142 142 108 123 126 147 149 145
238 243 240 239 245 242 246 239 248 255 248 243 234 240 229 191 188 186 180 171 166 162 166 162 160 159 159 157 149 139 135 136 138 139 141 159 159 149 147 162 148 171 154 145
243 240 239 239 239 241 255 256 250 256 256 256 239 240 235 195 194 191 182 174 170 167 173 167 162 162 159 154 150 143 136 137 138 146 139 143 127 135 148 143 135 175 164 153
252 254 245 243 239 237 249 255 253 257 259 253 244 243 229 207 191 188 189 179 172 171 172 164 161 159 157 156 154 144 139 140 146 156 148 152 135 128 130 121 139 180 162 171
243 244 239 238 238 231 234 238 243 241 238 245 242 236 213 180 176 181 190 183 178 169 165 162 161 160 159 158 155 150 144 146 151 156 150 147 142 146 143 145 166 210 178 158
240 239 231 224 230 231 229 234 238 251 251 260 255 239 177 164 160 168 174 174 171 168 167 164 162 158 159 155 151 150 146 151 154 155 155 150 158 166 138 190 267 268 337 105
251 244 234 228 228 237 234 238 246 257 269 266 251 228 174 164 162 163 166 167 166 166 167 165 161 159 160 154 146 145 148 152 156 158 160 156 156 156 117 129 269 25 17 109
267 271 252 231 228 234 242 241 246 251 263 266 258 233 205 174 169 165 164 163 160 164 169 161 150 154 155 148 142 144 147 151 153 151 159 152 142 146 141 146 153 104 81 56
266 273 265 242 227 231 235 241 246 256 258 263 263 245 194 171 174 170 164 163 161 163 166 158 153 148 143 145 149 151 149 151 154 156 151 130 135 135 123 119 121 96 71 90
258 268 272 263 248 243 237 243 244 248 255 261 267 266 100 142 153 159 151 150 157 160 155 157 160 150 151 150 147 148 153 157 159 154 144 141 141 142 140 133 113 112 123 110
280 259 264 268 248 235 238 242 250 251 256 257 259 238 122 118 135 155 147 150 155 162 164 162 152 144 146 146 143 146 149 153 155 154 147 136 132 139 133 118 122 132 125 104
258 249 246 252 258 256 250 249 250 251 250 253 256 240 180 157 159 150 144 144 151 165 168 156 148 150 150 149 150 153 152 149 153 147 145 141 144 147 147 143 139 143 127 122
255 252 255 265 269 264 258 251 247 248 253 256 257 248 234 188 165 145 142 149 154 171 170 157 153 152 152 152 154 157 158 154 152 157 158 157 155 153 156 150 133 130 132 129
248 261 269 268 267 268 269 259 246 243 249 253 260 257 233 141 162 158 154 162 167 174 172 161 153 148 153 157 163 160 162 162 159 163 167 161 160 157 153 150 139 132 130 97
245 252 260 263 266 271 260 264 256 246 243 245 246 243 179 194 189 172 154 161 168 181 164 159 159 155 155 158 159 162 165 165 168 167 174 168 165 166 169 168 151 146 138 116
252 263 258 263 269 258 253 260 262 256 252 252 240 219 202 199 183 171 157 165 173 177 164 153 149 149 155 156 160 165 171 172 175 174 177 174 170 170 165 166 159 157 151 160
220 238 254 256 254 260 263 266 270 255 256 286 278 251 260 254 184 189 160 157 160 163 144 147 153 157 156 160 166 170 176 177 181 182 184 182 176 172 174 174 170 173 178 188
209 216 239 253 257 251 255 304 315 282 247 317 7 335 284 309 241 216 120 117 126 132 128 144 151 153 158 167 172 180 186 190 191 188 185 182 181 178 181 180 178 182 183 203
219 221 232 249 255 254 296 320 311 259 273 2 8 1 325 308 336 75 100 116 137 133 129 137 145 153 160 169 179 189 192 194 190 183 181 181 183 179 183 176 175 182 198 207
236 239 237 243 247 252 340 344 354 6 357 357 354 11 14 344 79 98 105 116 121 128 141 149 152 151 157 171 185 192 192 191 185 180 184 184 181 197 194 173 182 197 206 208
244 254 273 271 259 332 3 35 33 357 337 345 347 358 349 334 168 152 142 129 136 144 150 152 159 161 171 183 191 195 184 177 180 180 186 182 181 186 184 188 196 202 211 220
283 285 258 254 233 257 321 348 354 341 325 330 345 351 346 333 307 182 148 145 141 147 151 154 169 180 180 185 187 178 173 172 179 184 182 181 184 195 187 197 210 213 217 223
301 297 264 263 272 297 302 351 345 333 318 320 330 332 325 293 295 2 69 116 131 144 154 165 173 173 177 175 173 177 175 167 171 184 186 191 198 192 179 192 226 232 242 242
290 298 292 286 299 303 308 319 318 318 310 323 334 325 323 341 337 2 71 113 153 173 162 161 177 183 176 173 170 170 169 175 176 182 190 202 200 188 198 193 230 7 276 259
Height
1477 1479 1477 1470 1468 1468 1468 1468 1469 1464 1460 1464 1469 1471 1473 1475 1479 1481 1485 1489 1494 1498 1502 1505 1508 1510 1512 1514 1516 1517 1519 1521 1522 1524 1525 1527 1528 1529 1530 1531 1531 1532 1533 1533
1473 1472 1465 1463 1462 1463 1465 1469 1468 1462 1458 1462 1466 1468 1468 1471 1475 1478 1482 1487 1491 1496 1501 1504 1507 1510 1511 1513 1515 1516 1518 1519 1521 1523 1524 1526 1528 1529 1529 1530 1531 1531 1532 1532
1468 1461 1458 1459 1462 1465 1465 1468 1467 1466 1460 1460 1466 1473 1468 1468 1473 1476 1480 1485 1489 1493 1498 1502 1505 1508 1511 1512 1514 1515 1516 1518 1520 1522 1524 1525 1527 1528 1529 1530 1530 1530 1531 1532
1460 1456 1455 1458 1460 1461 1466 1459 1462 1464 1468 1471 1469 1485 1471 1465 1469 1473 1478 1482 1487 1492 1496 1500 1503 1506 1509 1511 1512 1514 1515 1517 1519 1521 1522 1524 1526 1527 1527 1528 1529 1530 1530 1531
1458 1453 1454 1458 1457 1456 1458 1455 1460 1463 1466 1470 1468 1477 1474 1465 1472 1473 1476 1480 1485 1489 1494 1498 1501 1504 1508 1510 1511 1512 1514 1516 1518 1519 1521 1523 1524 1526 1527 1528 1528 1529 1530 1530
1454 1450 1450 1451 1450 1451 1453 1457 1461 1464 1468 1483 1470 1474 1476 1465 1467 1472 1474 1479 1483 1487 1491 1495 1499 1502 1506 1508 1510 1511 1513 1515 1517 1518 1520 1521 1523 1524 1525 1526 1527 1528 1529 1529
1457 1451 1447 1447 1451 1451 1454 1467 1482 1486 1486 1481 1460 1466 1469 1460 1460 1466 1472 1477 1481 1485 1489 1493 1497 1500 1503 1506 1508 1510 1512 1514 1515 1517 1519 1520 1522 1523 1524 1525 1526 1527 1527 1528
1464 1461 1446 1443 1448 1452 1453 1461 1482 1493 1488 1476 1462 1464 1459 1455 1458 1462 1468 1474 1479 1483 1487 1491 1495 1498 1501 1504 1506 1508 1510 1512 1514 1516 1518 1519 1520 1522 1523 1524 1525 1526 1526 1527
1459 1457 1440 1439 1441 1445 1453 1457 1455 1467 1472 1479 1470 1463 1457 1453 1457 1461 1465 1471 1476 1481 1485 1489 1493 1496 1499 1502 1504 1507 1509 1511 1513 1515 1516 1517 1519 1520 1521 1522 1523 1524 1525 1526
1451 1456 1442 1438 1440 1442 1444 1448 1458 1467 1482 1488 1477 1467 1464 1458 1458 1459 1463 1469 1474 1479 1483 1487 1491 1494 1497 1500 1503 1505 1507 1509 1511 1513 1515 1516 1517 1519 1520 1521 1522 1523 1524 1524
1451 1459 1450 1442 1445 1447 1448 1450 1452 1457 1461 1479 1484 1473 1449 1453 1455 1457 1462 1468 1472 1478 1482 1485 1489 1492 1496 1499 1501 1504 1506 1508 1510 1512 1513 1515 1516 1517 1518 1519 1520 1521 1522 1523
1454 1458 1460 1449 1438 1437 1442 1446 1450 1464 1467 1464 1471 1469 1445 1448 1454 1458 1461 1466 1472 1477 1480 1484 1487 1491 1494 1497 1500 1502 1504 1506 1508 1510 1512 1514 1515 1516 1517 1518 1519 1520 1520 1521
1457 1463 1472 1465 1452 1443 1443 1443 1444 1449 1457 1463 1470 1468 1448 1450 1455 1458 1462 1466 1471 1476 1479 1482 1486 1489 1493 1495 1498 1500 1502 1505 1507 1509 1510 1512 1514 1515 1515 1516 1517 1518 1519 1520
1457 1461 1469 1474 1462 1451 1449 1446 1444 1450 1460 1461 1460 1460 1454 1454 1456 1459 1462 1466 1470 1475 1478 1481 1484 1488 1491 1494 1496 1498 1501 1503 1505 1507 1509 1510 1512 1513 1514 1515 1516 1517 1518 1518
1456 1460 1459 1456 1450 1446 1445 1444 1443 1447 1450 1456 1456 1457 1455 1455 1457 1460 1463 1466 1470 1474 1477 1479 1483 1486 1489 1492 1495 1497 1499 1502 1504 1506 1507 1509 1510 1512 1513 1514 1515 1515 1516 1517
1456 1460 1459 1457 1448 1444 1443 1440 1440 1443 1445 1449 1451 1453 1451 1454 1458 1460 1463 1466 1469 1472 1475 1479 1482 1485 1488 1491 1493 1496 1498 1500 1502 1504 1506 1507 1508 1510 1511 1512 1513 1514 1515 1515
1456 1460 1464 1461 1450 1447 1451 1442 1440 1441 1440 1445 1452 1453 1452 1456 1458 1461 1463 1466 1468 1471 1474 1477 1480 1483 1486 1489 1491 1494 1496 1498 1500 1502 1503 1505 1507 1508 1509 1511 1511 1512 1513 1513
1458 1461 1462 1461 1459 1467 1448 1436 1435 1439 1440 1441 1445 1448 1450 1454 1457 1461 1463 1466 1467 1470 1472 1475 1478 1481 1484 1487 1489 1492 1495 1497 1498 1500 1501 1503 1505 1506 1508 1509 1510 1510 1511 1511
1454 1460 1464 1464 1465 1458 1445 1438 1438 1442 1445 1443 1445 1448 1451 1453 1456 1460 1462 1464 1466 1469 1471 1474 1477 1479 1482 1485 1487 1490 1492 1494 1496 1498 1500 1501 1503 1504 1505 1506 1507 1508 1509 1509
1450 1455 1463 1463 1467 1467 1453 1442 1440 1442 1450 1446 1447 1450 1452 1454 1458 1459 1461 1463 1466 1468 1470 1473 1475 1478 1480 1482 1485 1487 1489 1492 1493 1495 1497 1499 1500 1501 1503 1504 1505 1506 1507 1507
1455 1456 1460 1462 1462 1455 1448 1444 1443 1455 1458 1451 1451 1452 1453 1455 1458 1460 1461 1463 1465 1467 1469 1472 1474 1476 1478 1480 1483 1485 1487 1488 1490 1493 1494 1496 1498 1499 1500 1501 1502 1503 1504 1505
1455 1457 1457 1458 1462 1463 1450 1448 1453 1458 1455 1453 1453 1454 1455 1457 1458 1459 1461 1463 1465 1466 1468 1470 1472 1474 1476 1478 1480 1482 1484 1486 1488 1490 1492 1493 1495 1497 1498 1499 1500 1501 1502 1502
1452 1455 1455 1459 1463 1458 1455 1455 1457 1457 1457 1456 1455 1456 1456 1457 1458 1459 1461 1463 1464 1466 1467 1469 1471 1472 1474 1476 1478 1479 1481 1483 1485 1487 1489 1490 1492 1493 1495 1496 1497 1498 1499 1500
1451 1451 1453 1456 1457 1457 1457 1457 1457 1458 1458 1456 1456 1456 1455 1456 1457 1458 1460 1462 1463 1464 1466 1467 1469 1471 1472 1474 1475 1477 1478 1480 1482 1484 1485 1487 1489 1490 1492 1494 1495 1496 1496 1497
1455 1452 1453 1455 1456 1457 1456 1457 1458 1458 1457 1456 1455 1456 1456 1457 1457 1457 1459 1460 1462 1463 1464 1466 1467 1468 1470 1471 1473 1474 1476 1477 1479 1481 1483 1484 1486 1487 1489 1490 1491 1492 1493 1494
1456 1456 1455 1456 1457 1458 1458 1457 1458 1458 1457 1456 1455 1454 1455 1456 1456 1457 1458 1459 1460 1461 1462 1464 1465 1466 1467 1469 1470 1471 1473 1474 1476 1477 1479 1481 1483 1484 1485 1487 1488 1489 1490 1490